TimeICT,TemperatureF,Dew PointF,Humidity,Sea Level PressureIn,VisibilityMPH,Wind Direction,Wind SpeedMPH,Gust SpeedMPH,PrecipitationIn,Events,Conditions,WindDirDegrees,DateUTC
12:00 AM,82.4,73.4,74,29.86,5.6,WSW,6.9,-,N/A,,Mostly Cloudy,250,2013-09-17 17:00:00
12:30 AM,82.4,73.4,74,29.86,5.6,West,9.2,-,N/A,,Mostly Cloudy,270,2013-09-17 17:30:00
1:00 AM,83,76,73,29.80,6,West,9.2,,,,Scattered Clouds,260,2013-09-17 18:00:00
1:00 AM,82.4,73.4,74,29.83,5.6,West,9.2,-,N/A,,Mostly Cloudy,260,2013-09-17 18:00:00
1:30 AM,82.4,73.4,74,29.83,5.6,West,8.1,-,N/A,,Mostly Cloudy,270,2013-09-17 18:30:00
2:00 AM,82.4,73.4,74,29.80,5.6,Variable,4.6,-,N/A,,Mostly Cloudy,0,2013-09-17 19:00:00
2:30 AM,82.4,73.4,74,29.80,5.6,WSW,3.5,-,N/A,,Mostly Cloudy,240,2013-09-17 19:30:00
3:00 AM,82.4,73.4,74,29.80,5.6,WSW,8.1,-,N/A,,Mostly Cloudy,240,2013-09-17 20:00:00
3:30 AM,82.4,73.4,74,31.87,5.6,West,11.5,-,N/A,,Mostly Cloudy,260,2013-09-17 20:30:00
4:00 AM,82.4,73.4,74,29.77,5.6,West,11.5,-,N/A,,Mostly Cloudy,280,2013-09-17 21:00:00
4:30 AM,82.4,73.4,74,29.77,5.6,West,11.5,-,N/A,,Mostly Cloudy,260,2013-09-17 21:30:00
5:00 AM,82.4,73.4,74,29.74,5.6,WSW,8.1,-,N/A,,Mostly Cloudy,250,2013-09-17 22:00:00
5:30 AM,82.4,73.4,74,29.77,5.6,West,11.5,-,N/A,,Mostly Cloudy,260,2013-09-17 22:30:00
6:00 AM,82.4,73.4,74,29.80,5.6,West,6.9,-,N/A,,Mostly Cloudy,260,2013-09-17 23:00:00
6:30 AM,82.4,73.4,74,29.80,5.6,WSW,5.8,-,N/A,,Mostly Cloudy,250,2013-09-17 23:30:00
7:00 AM,82.4,73.4,74,29.80,5.6,WSW,8.1,-,N/A,,Mostly Cloudy,250,2013-09-18 00:00:00
7:30 AM,82.4,73.4,74,29.83,5.6,West,9.2,-,N/A,,Mostly Cloudy,260,2013-09-18 00:30:00
8:00 AM,84.2,73.4,70,29.83,5.6,West,12.7,-,N/A,,Mostly Cloudy,270,2013-09-18 01:00:00
8:30 AM,84.2,75.2,74,29.86,5.0,West,11.5,-,N/A,,Mostly Cloudy,260,2013-09-18 01:30:00
9:00 AM,84.2,77.0,79,29.86,5.0,West,12.7,-,N/A,,Mostly Cloudy,260,2013-09-18 02:00:00
9:30 AM,86.0,73.4,66,29.86,5.0,West,15.0,-,N/A,,Mostly Cloudy,260,2013-09-18 02:30:00
10:00 AM,86.0,73.4,66,29.86,5.0,West,16.1,-,N/A,,Mostly Cloudy,260,2013-09-18 03:00:00
10:30 AM,86.0,75.2,70,29.86,5.0,West,15.0,-,N/A,,Mostly Cloudy,280,2013-09-18 03:30:00
11:00 AM,86.0,75.2,70,29.86,5.0,West,15.0,-,N/A,,Mostly Cloudy,270,2013-09-18 04:00:00
11:30 AM,86.0,73.4,66,29.86,5.0,West,17.3,-,N/A,,Mostly Cloudy,270,2013-09-18 04:30:00
12:00 PM,86.0,73.4,66,29.83,5.0,West,13.8,-,N/A,,Mostly Cloudy,270,2013-09-18 05:00:00
1:00 PM,88,76,61,29.80,6,West,6.9,,,,Mist,270,2013-09-18 06:00:00
1:00 PM,86.0,73.4,66,29.83,5.0,West,15.0,-,N/A,,Mostly Cloudy,270,2013-09-18 06:00:00
1:30 PM,87.8,73.4,62,29.80,5.0,West,15.0,-,N/A,,Mostly Cloudy,270,2013-09-18 06:30:00
2:00 PM,86.0,73.4,66,29.80,5.0,West,15.0,-,N/A,,Mostly Cloudy,280,2013-09-18 07:00:00
2:30 PM,86.0,73.4,66,29.77,5.0,West,13.8,-,N/A,,Mostly Cloudy,270,2013-09-18 07:30:00
3:00 PM,86.0,73.4,66,29.77,5.0,West,16.1,-,N/A,,Mostly Cloudy,260,2013-09-18 08:00:00
3:30 PM,86.0,75.2,70,29.74,5.0,West,13.8,-,N/A,,Mostly Cloudy,270,2013-09-18 08:30:00
4:00 PM,86.0,73.4,66,29.74,5.0,West,12.7,-,N/A,,Mostly Cloudy,260,2013-09-18 09:00:00
4:30 PM,86.0,73.4,66,29.74,5.0,West,15.0,-,N/A,,Mostly Cloudy,270,2013-09-18 09:30:00
5:00 PM,84.2,73.4,70,29.74,5.0,West,12.7,-,N/A,,Mostly Cloudy,270,2013-09-18 10:00:00
5:30 PM,84.2,73.4,70,29.74,5.0,West,11.5,-,N/A,,Mostly Cloudy,280,2013-09-18 10:30:00
6:00 PM,84.2,73.4,70,29.77,5.0,West,11.5,-,N/A,,Mostly Cloudy,280,2013-09-18 11:00:00
6:30 PM,84.2,73.4,70,29.77,5.0,West,12.7,-,N/A,,Mostly Cloudy,270,2013-09-18 11:30:00
7:00 PM,85,76,67,29.74,6,West,6.9,,,,Mist,270,2013-09-18 12:00:00
7:00 PM,82.4,71.6,70,29.77,5.0,West,11.5,-,N/A,,Mostly Cloudy,270,2013-09-18 12:00:00
7:30 PM,82.4,73.4,74,29.80,5.0,West,11.5,-,N/A,,Mostly Cloudy,280,2013-09-18 12:30:00
8:00 PM,82.4,73.4,74,29.80,5.0,West,11.5,-,N/A,,Mostly Cloudy,270,2013-09-18 13:00:00
8:30 PM,82.4,73.4,74,29.80,6.2,West,9.2,-,N/A,,Mostly Cloudy,270,2013-09-18 13:30:00
9:00 PM,82.4,73.4,74,29.83,6.2,WNW,9.2,-,N/A,,Mostly Cloudy,290,2013-09-18 14:00:00
9:30 PM,82.4,73.4,74,29.83,6.2,West,10.4,-,N/A,,Mostly Cloudy,280,2013-09-18 14:30:00
10:00 PM,82.4,73.4,74,29.83,6.2,West,8.1,-,N/A,,Mostly Cloudy,270,2013-09-18 15:00:00
10:30 PM,82.4,73.4,74,29.83,6.2,West,5.8,-,N/A,,Scattered Clouds,280,2013-09-18 15:30:00
11:00 PM,82.4,73.4,74,29.83,6.2,West,8.1,-,N/A,,Scattered Clouds,280,2013-09-18 16:00:00
11:30 PM,82.4,73.4,74,29.83,6.2,WNW,10.4,-,N/A,,Scattered Clouds,290,2013-09-18 16:30:00